Location: NovaLab Observatory
(42.8167°N, 71.2500°W)
Time: 05:17:45
(UTC-04:00)

Daily predictions for brighter satellites

Satellite Brightness Start Highest point End
(mag) Time Altitude Azimuth Time Altitude Azimuth Time Altitude Azimuth
ATLAS 3B R/B 4.3 01:26:04 30° N 01:26:04 30° N 01:30:20 10° NNE
SL-16 R/B 4.5 01:48:20 22° NE 01:48:20 22° NE 01:52:16 10° N
Cosmos 2322 Rocket 4.5 02:17:08 18° ENE 02:17:08 18° ENE 02:18:53 10° NE
SL-16 R/B 4.4 02:22:18 20° ENE 02:22:18 20° ENE 02:24:23 10° NE
Resurs 1-4 Rocket 4.4 02:25:03 10° NE 02:27:06 20° NE 02:27:06 20° NE
CZ-2D R/B 4.2 02:26:53 10° NE 02:29:27 23° NE 02:29:27 23° NE
Cosmos 2360 Rocket 4.3 02:46:04 19° E 02:46:04 19° E 02:49:04 10° NE
Cosmos 1980 Rocket 4.0 02:48:30 27° N 02:48:30 27° N 02:51:04 10° NNE
ADEOS Rocket 4.3 02:46:41 10° NNE 02:50:14 30° ENE 02:50:14 30° ENE
CENTAUR R/B 3.3 02:56:30 48° NNE 02:56:30 48° NNE 03:01:28 10° NE
Cosmos 2263 Rocket 4.1 02:54:23 10° NNW 02:56:25 22° N 02:56:25 22° N
USA 215 4.3 02:58:57 10° E 03:04:57 40° NNE 03:10:57 10° NW
Cosmos 2315 Rocket 4.3 03:21:10 61° NNE 03:21:10 61° NNE 03:26:16 10° N
SL-16 R/B 3.6 03:33:25 34° NNW 03:33:25 34° NNW 03:36:52 10° NNW
ARIANE 5 R/B 3.6 03:30:52 10° N 03:34:01 38° N 03:34:01 38° N
Cosmos 2074 Rocket 4.3 03:42:13 10° N 03:48:27 64° E 03:51:12 34° SSE
MOS 1 Rocket 4.1 03:49:41 10° NNE 03:54:10 44° E 03:54:16 44° E
Cosmos 2322 Rocket 3.0 03:58:57 39° NNW 03:58:57 39° NNW 04:03:19 10° NNE
SL-16 R/B 3.0 04:04:10 38° NW 04:04:10 38° NW 04:08:45 10° NNE
BREEZE-M DEB (TANK) 4.3 04:02:47 25° SE 04:03:39 27° ESE 04:11:11 10° ENE
Cosmos 1777 Rocket 4.3 04:02:37 10° NNW 04:06:50 57° NNW 04:06:50 57° NNW
Cosmos 1975 3.8 04:04:10 10° N 04:07:13 44° NNE 04:07:13 44° NNE
Resurs 1-4 Rocket 3.1 04:04:38 10° N 04:08:11 32° NW 04:08:11 32° NW
Cosmos 2219 Rocket 4.0 04:06:43 11° SSE 04:10:57 26° ESE 04:15:29 10° NE
CZ-2D R/B 3.1 04:06:46 10° N 04:10:47 35° NW 04:10:47 35° NW
COSMOS 2428 3.5 04:09:54 31° SSE 04:12:07 47° ESE 04:17:33 10° NE
Okean O Rocket 2.6 04:10:48 10° NNE 04:15:05 44° E 04:16:33 32° SE
Cosmos 1844 Rocket 3.6 04:11:48 10° NNW 04:17:13 48° ENE 04:22:35 10° SE
PSLV R/B 4.4 04:13:51 10° NNE 04:17:15 52° E 04:17:15 52° E
DELTA 2 R/B (1) 3.9 04:21:58 48° S 04:22:22 49° SSE 04:27:42 10° E
Lacrosse 4 Rocket 3.5 04:26:46 16° SSE 04:26:46 16° SSE 04:27:42 10° SSE
Cosmos 2184 Rocket 3.9 04:18:50 10° NNW 04:25:02 71° W 04:28:01 32° S
Cosmos 1455 Rocket 3.1 04:22:53 10° NNW 04:26:43 64° NW 04:26:43 64° NW
Cosmos 2360 Rocket 2.2 04:27:51 55° W 04:28:34 60° WNW 04:34:10 10° NNE
Gblst 52 Del rocket 4.2 04:27:41 35° WNW 04:30:17 87° SW 04:36:34 10° SE
Cosmos 1980 Rocket 4.3 04:30:15 11° NW 04:30:44 12° NW 04:32:37 10° NNW
Cosmos 2278 Rocket 4.1 04:27:26 10° N 04:32:23 30° NE 04:37:18 10° ESE
ADEOS II 2.5 04:28:25 10° NNE 04:33:38 60° E 04:37:45 16° S
ADEOS Rocket 3.6 04:32:24 10° N 04:37:11 31° WNW 04:37:11 31° WNW
Cosmos 1812 4.4 04:40:01 22° NNW 04:40:01 22° NNW 04:41:51 10° N
Cosmos 2237 Rocket 4.2 04:34:10 10° SSE 04:38:46 26° ESE 04:43:24 10° NE
Cosmos 1340 3.1 04:44:18 45° NW 04:44:18 45° NW 04:47:22 10° N
ATLAS 5 CENTAUR R/B 3.5 04:40:12 10° NNW 04:45:52 46° NE 04:52:02 10° ESE
CENTAUR R/B 4.1 04:43:40 18° WNW 04:46:29 23° NNW 04:52:00 10° NNE
USA 215 3.2 04:41:03 10° SE 04:47:36 80° SW 04:54:12 10° NW
Cosmos 2208 Rocket 4.0 04:48:51 30° SSW 04:51:36 81° WNW 04:57:05 10° NNE
Cosmos 1666 3.5 04:49:40 10° N 04:53:30 53° E 04:57:16 10° SSE
Cosmos 1536 Rocket 3.7 04:53:02 44° WSW 04:54:00 54° WNW 04:58:25 10° N
PAYLOAD B 4.2 04:50:03 10° NNE 04:55:41 84° WNW 05:00:22 15° SSW
USA 229 DEB 4.1 04:50:45 15° SSW 04:56:27 61° ESE 05:03:16 10° NE
USA 229 4.1 04:50:50 15° SSW 04:56:33 60° ESE 05:03:21 10° NE
Cosmos 2154 Rocket 3.9 04:52:49 10° NNW 04:59:00 72° W 05:05:10 10° S
Cosmos 2333 Rocket 3.0 04:54:18 10° S 04:59:48 52° ESE 05:05:22 10° NE
Cosmos 1743 2.5 04:56:57 10° NNW 05:00:49 73° W 05:04:38 10° S
Cosmos 1867 4.2 04:56:50 10° NNW 05:02:15 58° NE 05:07:35 10° SE
PSLV R/B 3.5 05:01:21 10° N 05:05:42 75° WNW 05:08:52 18° SSW
Cosmos 2322 4.4 05:04:46 28° W 05:06:48 36° WNW 05:12:04 10° N
CZ-4B R/B 2.9 05:03:47 10° N 05:07:15 45° WNW 05:08:01 39° WSW
MTI 3.9 05:06:50 38° SSW 05:07:44 52° W 05:10:58 10° NNW
Meteor 1-31 Rocket 3.7 05:06:51 10° NNE 05:10:33 47° E 05:14:14 10° S
Okean 1-7 Rocket 3.6 05:09:44 10° S 05:14:15 83° E 05:18:45 10° N
EO 1 Del DPAF 3.6 05:13:26 10° S 05:17:02 40° W 05:20:42 10° NNW
SL-8 Rocket 4.2 05:12:42 10° N 05:18:57 75° E 05:25:07 10° SSE
Nadezhda 1 Rocket 4.5 05:16:39 20° SW 05:20:06 36° WNW 05:25:41 10° N
Thor Agena Rocket 4.1 05:15:39 10° SSE 05:20:37 59° ENE 05:25:35 10° N
Cosmos 2181 Rocket 3.9 05:14:57 10° S 05:21:10 82° W 05:27:31 10° N
Cosmos 2150 Rocket 4.2 05:17:14 10° NNW 05:22:33 76° ENE 05:27:55 10° SSE
Cosmos 1606 Rocket 4.2 05:20:00 10° N 05:24:25 59° E 05:28:50 10° SSE
Meteor PRIRODA 3.6 05:20:53 10° N 05:24:39 80° WNW 05:28:24 10° SSW
Cosmos 1844 3.7 05:19:52 10° NNW 05:25:35 65° WSW 05:31:12 10° S
Cosmos 2333 4.4 05:21:51 18° SW 05:25:55 52° WNW 05:31:31 10° NNE
Cosmos 468 Rocket 4.0 05:23:18 10° SSW 05:28:29 87° WNW 05:33:45 10° NNE
Cosmos 1898 Rocket 3.4 05:23:25 10° NNW 05:28:38 75° WSW 05:33:46 10° SSE
Meteor 1-13 Rocket 4.4 05:23:43 10° SSW 05:29:03 50° WNW 05:34:32 10° N
CZ-4B R/B 3.6 05:27:11 10° N 05:32:33 46° WNW 05:37:49 10° SW
Iridium 2 3.8 05:28:49 10° N 05:32:39 80° E 05:36:29 10° S
BREEZE M DEB (TANK) 3.3 05:22:28 10° WNW 05:33:49 87° NNE 05:37:21 10° ESE
SL-16 R/B 4.1 05:30:12 10° SSE 05:35:08 32° ESE 05:40:06 10° NE
Tiangong 2 2.3 05:34:35 21° WSW 05:35:38 26° SSW 05:38:18 10° SSE
Cosmos 2341 Rocket 4.2 05:33:42 10° NNW 05:39:38 47° W 05:45:31 10° SSW
Cosmos 1238 Rocket 3.6 05:42:00 17° W 05:42:37 18° WNW 05:44:49 10° NNW
ERS-2 2.2 05:39:45 10° N 05:43:23 55° WNW 05:47:01 10° SSW
Cosmos 1980 3.7 05:39:49 10° SSW 05:45:29 84° WNW 05:51:10 10° NNE
Cosmos 2218 Rocket 4.0 05:39:34 10° N 05:46:00 82° W 05:52:19 10° S
Cosmos 2228 4.0 05:44:56 10° N 05:49:11 53° E 05:53:26 10° SSE
Okean O Rocket 3.1 05:47:59 10° NNW 05:51:07 19° WNW 05:54:02 11° WSW
SL-8 R/B 3.7 05:49:42 10° WNW 05:54:31 85° NNE 05:59:18 10° ESE
Cosmos 2219 Rocket 2.5 05:49:15 10° SW 05:54:36 46° WNW 05:59:59 10° NNE
Radarsat Rocket 4.4 05:49:16 10° NNE 05:55:13 68° ESE 06:01:00 10° S
COSMO-SKYMED 1 2.7 05:51:39 10° SSE 05:55:59 80° ENE 06:00:20 10° N
Cosmos 1763 Rocket 3.5 05:50:55 10° SSW 05:55:59 87° ESE 06:01:09 10° NNE
COSMOS 2428 3.7 05:51:56 11° WSW 05:56:35 28° NW 06:01:28 10° N
Cosmos 405 4.0 05:53:19 10° N 05:56:48 51° ENE 06:00:15 10° SSE
Cosmos 1937 Rocket 3.6 05:52:39 10° NNW 05:57:52 57° WSW 06:03:02 10° S
Timation 1 Rocket 4.4 05:52:13 10° NNW 05:58:16 87° ENE 06:04:15 10° SSE
Cosmos 1025 Rocket 3.5 05:54:54 10° SSW 05:59:01 40° WNW 06:03:12 10° N
Cosmos 1726 Rocket 3.5 05:55:00 10° NNW 05:59:26 69° W 06:03:51 10° S
Cosmos 1844 Rocket 3.6 05:56:20 10° NW 06:00:46 25° WSW 06:05:10 10° SSW
NOSS 0 Rocket 4.0 05:55:47 10° SW 06:01:54 62° WNW 06:08:01 10° NNE
Meteor 1-23 Rocket 4.5 05:56:38 10° SSW 06:02:16 52° WNW 06:07:54 10° N
GENESIS II 4.4 05:58:26 10° SW 06:02:28 63° NW 06:06:33 10° NNE
Cosmos 1437 3.2 06:00:49 10° SSW 06:03:57 41° WNW 06:07:05 10° N
Okean-O 3.0 06:00:55 10° N 06:05:09 44° WNW 06:09:21 10° SW
DELTA 2 R/B (1) 3.8 06:03:02 10° W 06:08:32 63° S 06:14:00 10° ESE
Meteor 1-28 Rocket 3.3 06:05:13 10° SSE 06:09:01 89° ENE 06:12:52 10° NNW
Cosmos 1892 Rocket 3.6 06:05:21 10° SSW 06:09:38 61° W 06:13:59 10° N
Cosmos 841 Rocket 3.5 06:04:44 10° SSW 06:09:54 87° WNW 06:15:04 10° NNE
NOAA 6 4.0 06:05:40 10° N 06:10:46 68° WNW 06:15:50 10° SSW
